Location: Mentone
(34.5413°N, 85.5351°W)
Time: 17:23:25
(UTC-05:00)

Vanguard 3 - All Passes

Search period start: 23 July 2014 00:00
Search period end: 02 August 2014 00:00
Orbit: 508 x 3279 km, 33.3° (Epoch: 22 July)

Date Brightness Start Highest point End Pass type
(mag) Time Alt. Az. Time Alt. Az. Time Alt. Az.
23 Jul - 02:48:29 10° SSW 02:52:36 26° SE 02:58:40 10° E visible
23 Jul - 04:57:47 10° WSW 05:04:07 74° SSE 05:15:49 10° E visible
23 Jul - 07:08:53 10° W 07:17:52 83° S 07:34:08 10° ESE daylight
23 Jul - 09:20:59 10° W 09:33:01 59° SSW 09:51:35 10° SE daylight
23 Jul - 11:35:40 10° W 11:48:40 31° SW 12:04:28 10° SSE daylight
24 Jul - 01:41:17 10° SE 01:41:41 10° SE 01:42:05 10° SE visible
24 Jul - 03:47:04 10° SW 03:52:11 54° SSE 04:01:01 10° E visible
24 Jul - 05:57:35 10° W 06:04:52 85° S 06:18:29 10° E daylight
24 Jul - 08:09:04 10° W 08:19:14 70° SSW 08:36:40 10° ESE daylight
24 Jul - 10:22:04 10° W 10:34:36 41° SSW 10:51:58 10° SSE daylight
24 Jul - 12:41:09 10° WSW 12:50:02 16° SW 12:59:44 10° SSW daylight
25 Jul - 02:36:51 10° SSW 02:40:50 30° SE 02:46:44 10° E visible
25 Jul - 04:46:33 10° WSW 04:52:26 78° S 05:03:16 10° E visible
25 Jul - 06:57:34 10° W 07:05:55 79° S 07:21:14 10° ESE daylight
25 Jul - 09:09:33 10° W 09:20:41 52° SSW 09:38:11 10° SE daylight
25 Jul - 11:24:39 10° W 11:36:06 25° SW 11:50:10 10° S daylight
26 Jul - 01:27:56 10° SSE 01:29:50 13° SE 01:32:01 10° ESE visible
26 Jul - 03:35:45 10° WSW 03:40:33 60° SSE 03:48:44 10° E visible
26 Jul - 05:46:21 10° W 05:53:08 84° S 06:05:48 10° E daylight
26 Jul - 07:57:42 10° W 08:07:07 63° SSW 08:23:30 10° ESE daylight
26 Jul - 10:10:48 10° W 10:22:10 35° SSW 10:38:06 10° SSE daylight
26 Jul - 12:33:09 10° SW 12:37:36 11° SW 12:42:18 10° SSW daylight
27 Jul - 02:25:18 10° SW 02:29:10 35° SSE 02:34:49 10° E visible
27 Jul - 04:35:20 10° W 04:40:50 81° S 04:50:48 10° E visible
27 Jul - 06:46:17 10° W 06:54:02 73° SSW 07:08:20 10° ESE daylight
27 Jul - 08:58:14 10° W 09:08:27 45° SSW 09:24:37 10° SE daylight
27 Jul - 11:14:08 10° WSW 11:23:41 20° SW 11:35:19 10° S daylight
28 Jul - 01:15:39 10° S 01:18:06 16° SE 01:20:58 10° ESE visible
28 Jul - 03:24:29 10° WSW 03:29:00 66° SSE 03:36:32 10° E visible
28 Jul - 05:35:08 10° W 05:41:27 81° S 05:53:10 10° E daylight
28 Jul - 07:46:24 10° W 07:55:06 55° SSW 08:10:15 10° SE daylight
28 Jul - 09:59:48 10° W 10:09:53 28° SSW 10:23:54 10° SSE daylight
29 Jul - 02:13:50 10° SW 02:17:36 41° SSE 02:22:57 10° E visible
29 Jul - 04:24:08 10° W 04:29:17 82° S 04:38:26 10° E visible
29 Jul - 06:35:02 10° W 06:42:13 66° SSW 06:55:24 10° ESE daylight
29 Jul - 08:47:04 10° W 08:56:20 37° SSW 09:10:51 10° SSE daylight
29 Jul - 11:04:34 10° WSW 11:11:26 14° SW 11:19:28 10° S daylight
30 Jul - 01:03:40 10° SSW 01:06:28 20° SSE 01:09:42 10° E night (unlit)
30 Jul - 03:13:15 10° WSW 03:17:31 72° S 03:24:25 10° E visible
30 Jul - 05:23:56 10° W 05:29:48 76° S 05:40:34 10° ESE visible
30 Jul - 07:35:11 10° W 07:43:10 47° SSW 07:56:53 10° SE daylight
30 Jul - 09:49:10 10° WSW 09:57:44 22° SSW 10:09:17 10° S daylight
31 Jul - 02:02:26 10° SW 02:06:06 48° SSE 02:11:09 10° E visible
31 Jul - 04:12:58 10° W 04:17:47 81° S 04:26:08 10° E visible
31 Jul - 06:23:49 10° W 06:30:28 58° SSW 06:42:27 10° ESE daylight
31 Jul - 08:36:06 10° W 08:44:20 30° SSW 08:56:52 10° SSE daylight
01 Aug - 00:51:50 10° SSW 00:54:55 25° SSE 00:58:22 10° E night (unlit)
01 Aug - 03:02:01 10° WSW 03:06:06 76° S 03:12:23 10° E visible
01 Aug - 05:12:45 10° W 05:18:13 69° S 05:28:00 10° ESE visible
01 Aug - 07:24:06 10° W 07:31:20 39° SSW 07:43:25 10° SE daylight
01 Aug - 09:39:12 10° WSW 09:45:44 16° SSW 09:54:00 10° S daylight
01 Aug - 23:42:01 10° S 23:43:41 12° SSE 23:45:18 10° SE night (unlit)
